TimeCST,TemperatureF,Dew PointF,Humidity,Sea Level PressureIn,VisibilityMPH,Wind Direction,Wind SpeedMPH,Gust SpeedMPH,PrecipitationIn,Events,Conditions,WindDirDegrees,DateUTC
12:55 AM,44.6,43.2,95,30.17,10.0,Calm,Calm,-,N/A,,Clear,0,2012-11-22 06:55:00
1:55 AM,44.1,42.6,95,30.17,10.0,Calm,Calm,-,N/A,,Clear,0,2012-11-22 07:55:00
2:55 AM,42.6,40.5,92,30.17,10.0,Calm,Calm,-,N/A,,Clear,0,2012-11-22 08:55:00
3:55 AM,41.7,40.1,94,30.17,10.0,Calm,Calm,-,N/A,,Clear,0,2012-11-22 09:55:00
4:55 AM,41.9,40.8,96,30.18,7.0,Calm,Calm,-,N/A,,Clear,0,2012-11-22 10:55:00
5:55 AM,39.7,38.8,97,30.20,7.0,Calm,Calm,-,N/A,,Clear,0,2012-11-22 11:55:00
6:55 AM,41.0,39.9,96,30.21,10.0,Calm,Calm,-,N/A,,Clear,0,2012-11-22 12:55:00
7:55 AM,51.4,46.9,85,30.23,10.0,NE,3.5,-,N/A,,Clear,40,2012-11-22 13:55:00
8:55 AM,59.5,48.0,66,30.25,10.0,NNE,3.5,-,N/A,,Clear,20,2012-11-22 14:55:00
9:55 AM,67.5,48.7,51,30.25,10.0,Calm,Calm,-,N/A,,Clear,0,2012-11-22 15:55:00
10:55 AM,70.9,47.3,43,30.23,10.0,Calm,Calm,-,N/A,,Clear,0,2012-11-22 16:55:00
11:55 AM,72.5,46.6,40,30.21,10.0,WSW,3.5,-,N/A,,Clear,250,2012-11-22 17:55:00
12:55 PM,73.4,45.1,36,30.19,10.0,Variable,3.5,-,N/A,,Clear,0,2012-11-22 18:55:00
1:55 PM,73.8,44.6,35,30.17,10.0,North,5.8,-,N/A,,Clear,350,2012-11-22 19:55:00
2:55 PM,73.8,44.2,35,30.17,10.0,North,4.6,-,N/A,,Clear,350,2012-11-22 20:55:00
3:55 PM,70.7,47.8,44,30.17,10.0,South,8.1,-,N/A,,Clear,190,2012-11-22 21:55:00
4:55 PM,63.7,48.9,59,30.19,10.0,South,4.6,-,N/A,,Clear,180,2012-11-22 22:55:00
5:55 PM,59.2,49.1,69,30.19,10.0,Calm,Calm,-,N/A,,Clear,0,2012-11-22 23:55:00
6:55 PM,55.4,48.7,78,30.20,10.0,South,3.5,-,N/A,,Clear,180,2012-11-23 00:55:00
7:55 PM,50.5,46.4,86,30.21,10.0,Calm,Calm,-,N/A,,Clear,0,2012-11-23 01:55:00
8:55 PM,48.4,45.5,90,30.22,10.0,Calm,Calm,-,N/A,,Clear,0,2012-11-23 02:55:00
9:55 PM,46.8,44.8,93,30.21,8.0,Calm,Calm,-,N/A,,Clear,0,2012-11-23 03:55:00
10:55 PM,46.0,44.2,93,30.21,7.0,Calm,Calm,-,N/A,,Clear,0,2012-11-23 04:55:00
11:11 PM,44.6,42.8,93,30.21,1.8,Calm,Calm,-,N/A,,Clear,0,2012-11-23 05:11:00
11:12 PM,46.4,44.6,93,30.21,1.2,Calm,Calm,-,N/A,,Clear,0,2012-11-23 05:12:00
11:13 PM,46.4,44.6,93,30.21,1.0,Calm,Calm,-,N/A,,Clear,0,2012-11-23 05:13:00
11:18 PM,46.4,44.6,93,30.21,0.8,Calm,Calm,-,N/A,,Clear,0,2012-11-23 05:18:00
11:20 PM,46.4,44.6,93,30.21,1.0,Calm,Calm,-,N/A,,Clear,0,2012-11-23 05:20:00
11:21 PM,46.4,46.4,100,30.21,1.2,Calm,Calm,-,N/A,,Clear,0,2012-11-23 05:21:00
11:22 PM,46.4,46.4,100,30.21,1.5,Calm,Calm,-,N/A,,Clear,0,2012-11-23 05:22:00
11:23 PM,46.4,46.4,100,30.21,2.0,Calm,Calm,-,N/A,,Clear,0,2012-11-23 05:23:00
11:24 PM,46.4,46.4,100,30.21,2.5,Calm,Calm,-,N/A,,Clear,0,2012-11-23 05:24:00
11:25 PM,46.4,44.6,93,30.21,3.0,Calm,Calm,-,N/A,,Clear,0,2012-11-23 05:25:00
11:55 PM,46.2,45.0,95,30.21,10.0,Calm,Calm,-,N/A,,Clear,0,2012-11-23 05:55:00